Wendover, UT

11:35 AM MDT on October 18, 2017 (GMT -0600)
Wendover

Weather History for KENV - July, 2014

Change the Weather History Date:

Monday, July 28, 2014

  Actual Average Record
Temperature  
Mean Temperature 83 °F -  
Max Temperature 91 °F 92 °F 102 °F (1934)
Min Temperature 73 °F 68 °F 52 °F (1948)
Cooling Degree Days 18    
Growing Degree Days 33 (Base 50)    
Moisture  
Dew Point 48 °F    
Average Humidity 30    
Maximum Humidity 61    
Minimum Humidity 20    
Precipitation  
Precipitation 0.00 in - - ()
Sea Level Pressure  
Sea Level Pressure 30.16 in    
Wind  
Wind Speed 12 mph (NNE)    
Max Wind Speed 24 mph    
Max Gust Speed 33 mph    
Visibility 10 miles    
Events      
Averages and records for this station are not official NWS values.
T = Trace of Precipitation, MM = Missing Value Source: NWS Daily Summary

Daily Weather History Graph

Daily Weather History Graph

Search for Another Location

Airport or City:

Trip Planner

Search our weather history database for the weather conditions in past years. The results will help you decide how hot, cold, wet, or windy it might be!

Date:

Astronomy

Jul. 28, 2014 Rise Set
Actual Time 6:29 AM MDT 8:55 PM MDT
Civil Twilight 5:57 AM MDT 9:26 PM MDT
Nautical Twilight 5:19 AM MDT 10:05 PM MDT
Astronomical Twilight 4:36 AM MDT 10:47 PM MDT
Moon 8:15 AM MDT (7/28) 9:38 PM MDT (7/28)
Length of Visible Light 15h 28m
Length of Day
14h 26m
Waxing Crescent, 3% of the Moon is Illuminated
Jul 28
Waxing Crescent
Aug 3
First Quarter
Aug 10
Full
Aug 17
Last Quarter
Aug 25
New

Hourly Weather History & Observations

Time (MDT) Temp. Dew Point Humidity Pressure Visibility Wind Dir Wind Speed Gust Speed Precip Events Conditions
12:15 AM 84.2 °F 44.6 °F 25% 30.15 in 10.0 mi South 19.6 mph - N/A   Scattered Clouds
12:35 AM 84.2 °F 44.6 °F 25% 30.16 in 10.0 mi South 19.6 mph - N/A   Partly Cloudy
12:55 AM 84.2 °F 44.6 °F 25% 30.15 in 10.0 mi SW 11.5 mph - N/A   Clear
1:15 AM 84.2 °F 44.6 °F 25% 30.15 in 10.0 mi West 11.5 mph - N/A   Mostly Cloudy
1:35 AM 84.2 °F 44.6 °F 25% 30.14 in 10.0 mi West 15.0 mph - N/A   Scattered Clouds
1:55 AM 82.4 °F 44.6 °F 26% 30.14 in 10.0 mi West 12.7 mph - N/A   Clear
2:15 AM 82.4 °F 44.6 °F 26% 30.14 in 10.0 mi West 9.2 mph - N/A   Clear
2:35 AM 82.4 °F 44.6 °F 26% 30.14 in 10.0 mi WNW 11.5 mph - N/A   Clear
2:55 AM 82.4 °F 44.6 °F 26% 30.14 in 10.0 mi West 12.7 mph - N/A   Clear
3:15 AM 84.2 °F 44.6 °F 25% 30.13 in 10.0 mi WNW 13.8 mph - N/A   Mostly Cloudy
3:35 AM 84.2 °F 42.8 °F 23% 30.13 in 10.0 mi WNW 11.5 mph - N/A   Scattered Clouds
3:55 AM 84.2 °F 42.8 °F 23% 30.13 in 10.0 mi WNW 6.9 mph - N/A   Partly Cloudy
4:15 AM 80.6 °F 46.4 °F 30% 30.14 in 10.0 mi SE 8.1 mph - N/A   Partly Cloudy
4:35 AM 80.6 °F 46.4 °F 30% 30.14 in 10.0 mi SE 5.8 mph - N/A   Clear
4:55 AM 80.6 °F 48.2 °F 32% 30.15 in 10.0 mi NW 3.5 mph - N/A   Partly Cloudy
5:15 AM 80.6 °F 46.4 °F 30% 30.15 in 10.0 mi ENE 4.6 mph - N/A   Mostly Cloudy
5:35 AM 80.6 °F 46.4 °F 30% 30.15 in 10.0 mi NE 8.1 mph - N/A   Mostly Cloudy
5:55 AM 78.8 °F 48.2 °F 34% 30.15 in 10.0 mi East 6.9 mph - N/A   Overcast
6:15 AM 78.8 °F 48.2 °F 34% 30.16 in 10.0 mi East 6.9 mph - N/A   Overcast
6:35 AM 78.8 °F 48.2 °F 34% 30.17 in 10.0 mi NE 6.9 mph - N/A   Overcast
6:55 AM 78.8 °F 48.2 °F 34% 30.17 in 10.0 mi ENE 6.9 mph - N/A   Overcast
7:15 AM 78.8 °F 48.2 °F 34% 30.17 in 10.0 mi ENE 9.2 mph - N/A   Overcast
7:35 AM 78.8 °F 48.2 °F 34% 30.18 in 10.0 mi NE 6.9 mph - N/A   Mostly Cloudy
7:55 AM 78.8 °F 48.2 °F 34% 30.18 in 10.0 mi East 5.8 mph - N/A   Partly Cloudy
8:15 AM 78.8 °F 48.2 °F 34% 30.18 in 10.0 mi ENE 5.8 mph - N/A   Clear
8:35 AM 80.6 °F 48.2 °F 32% 30.19 in 10.0 mi NNE 5.8 mph - N/A   Partly Cloudy
8:55 AM 80.6 °F 48.2 °F 32% 30.19 in 10.0 mi ENE 8.1 mph - N/A   Partly Cloudy
9:15 AM 80.6 °F 48.2 °F 32% 30.20 in 10.0 mi East 8.1 mph - N/A   Mostly Cloudy
9:35 AM 80.6 °F 48.2 °F 32% 30.20 in 10.0 mi East 5.8 mph - N/A   Mostly Cloudy
9:55 AM 82.4 °F 48.2 °F 30% 30.19 in 10.0 mi NE 5.8 mph - N/A   Partly Cloudy
10:15 AM 82.4 °F 48.2 °F 30% 30.19 in 10.0 mi NE 6.9 mph - N/A   Mostly Cloudy
10:35 AM 84.2 °F 48.2 °F 29% 30.19 in 10.0 mi East 8.1 mph - N/A   Overcast
10:55 AM 86.0 °F 48.2 °F 27% 30.19 in 10.0 mi East 8.1 mph - N/A   Mostly Cloudy
11:15 AM 86.0 °F 46.4 °F 25% 30.19 in 10.0 mi ESE 5.8 mph - N/A   Scattered Clouds
11:35 AM 87.8 °F 46.4 °F 24% 30.19 in 10.0 mi SE 10.4 mph - N/A   Mostly Cloudy
11:55 AM 87.8 °F 46.4 °F 24% 30.19 in 10.0 mi South 9.2 mph - N/A   Partly Cloudy
12:15 PM 87.8 °F 46.4 °F 24% 30.19 in 10.0 mi SSE 5.8 mph - N/A   Clear
12:35 PM 89.6 °F 46.4 °F 22% 30.18 in 10.0 mi Calm Calm - N/A   Clear
12:55 PM 89.6 °F 46.4 °F 22% 30.18 in 10.0 mi South 9.2 mph - N/A   Clear
1:15 PM 89.6 °F 44.6 °F 21% 30.17 in 10.0 mi South 10.4 mph - N/A   Clear
1:35 PM 89.6 °F 44.6 °F 21% 30.16 in 10.0 mi South 6.9 mph - N/A   Partly Cloudy
2:15 PM 89.6 °F 44.6 °F 21% 30.15 in 10.0 mi SSE 10.4 mph - N/A   Partly Cloudy
2:35 PM 91.4 °F 44.6 °F 20% 30.14 in 10.0 mi SE 13.8 mph - N/A   Mostly Cloudy
2:55 PM 91.4 °F 44.6 °F 20% 30.14 in 10.0 mi ESE 10.4 mph - N/A   Scattered Clouds
3:15 PM 91.4 °F 44.6 °F 20% 30.13 in 10.0 mi ESE 11.5 mph - N/A   Clear
3:35 PM 91.4 °F 44.6 °F 20% 30.13 in 10.0 mi SSE 8.1 mph - N/A   Clear
3:55 PM 91.4 °F 46.4 °F 21% 30.13 in 10.0 mi SW 12.7 mph - N/A   Partly Cloudy
4:15 PM 91.4 °F 46.4 °F 21% 30.13 in 10.0 mi West 16.1 mph 25.3 mph N/A   Scattered Clouds
4:35 PM 89.6 °F 46.4 °F 22% 30.12 in 10.0 mi West 18.4 mph - N/A   Partly Cloudy
4:55 PM 89.6 °F 44.6 °F 21% 30.12 in 10.0 mi West 15.0 mph - N/A   Clear
5:15 PM 89.6 °F 46.4 °F 22% 30.12 in 10.0 mi WSW 17.3 mph 24.2 mph N/A   Partly Cloudy
5:35 PM 87.8 °F 44.6 °F 22% 30.12 in 10.0 mi West 17.3 mph - N/A   Clear
5:55 PM 86.0 °F 46.4 °F 25% 30.13 in 10.0 mi West 24.2 mph - N/A   Mostly Cloudy
6:15 PM 84.2 °F 46.4 °F 27% 30.13 in 10.0 mi NW 21.9 mph 28.8 mph N/A   Overcast
6:35 PM 84.2 °F 48.2 °F 29% 30.13 in 10.0 mi WNW 24.2 mph 33.4 mph N/A   Mostly Cloudy
6:55 PM 84.2 °F 48.2 °F 29% 30.13 in 10.0 mi WNW 23.0 mph 31.1 mph N/A   Partly Cloudy
7:15 PM 84.2 °F 48.2 °F 29% 30.13 in 10.0 mi NW 23.0 mph 29.9 mph N/A   Partly Cloudy
7:35 PM 84.2 °F 46.4 °F 27% 30.13 in 10.0 mi West 12.7 mph 27.6 mph N/A   Partly Cloudy
7:55 PM 84.2 °F 46.4 °F 27% 30.13 in 10.0 mi NW 11.5 mph - N/A   Mostly Cloudy
8:15 PM 84.2 °F 46.4 °F 27% 30.14 in 10.0 mi WNW 8.1 mph - N/A   Mostly Cloudy
8:55 PM 82.4 °F 46.4 °F 28% 30.14 in 10.0 mi NW 13.8 mph 19.6 mph N/A   Overcast
9:15 PM 78.8 °F 53.6 °F 42% 30.17 in 10.0 mi ESE 20.7 mph 26.5 mph N/A   Overcast
9:35 PM 77.0 °F 55.4 °F 47% 30.20 in 10.0 mi North 13.8 mph - N/A   Mostly Cloudy
9:55 PM 78.8 °F 53.6 °F 42% 30.20 in 10.0 mi NW 5.8 mph - N/A   Overcast
10:15 PM 77.0 °F 55.4 °F 47% 30.21 in 10.0 mi WNW 9.2 mph - N/A   Overcast
10:35 PM 77.0 °F 53.6 °F 44% 30.21 in 10.0 mi NW 6.9 mph - N/A   Mostly Cloudy
10:55 PM 77.0 °F 55.4 °F 47% 30.21 in 10.0 mi NE 6.9 mph - N/A   Mostly Cloudy
11:15 PM 75.2 °F 57.2 °F 53% 30.21 in 10.0 mi ESE 12.7 mph - N/A   Mostly Cloudy
11:35 PM 75.2 °F 57.2 °F 53% 30.21 in 10.0 mi East 8.1 mph - N/A   Overcast
11:55 PM 73.4 °F 59.0 °F 61% 30.21 in 10.0 mi ENE 10.4 mph - N/A   Overcast